Regional Weather Roundup
Issued by NWS

Home | Current Version | Previous Version | Graphics & Text | Print | Product List | Glossary On
Versions: 1 2 3 4 5 6 7 8 9 10 11 12 13 14 15 16 17 18 19 20 21 22 23 24 25 26 27 28 29 30 31 32 33 34 35 36 37 38 39 40 41 42 43 44 45 46 47 48 49 50
123
ASUS43 KMKX 270500
RWRWI

WISCONSIN REGIONAL WEATHER ROUNDUP
NATIONAL WEATHER SERVICE MILWAUKEE/SULLIVAN WI
1200 AM CDT WED JUL 27 2016

NOTE: "FAIR" INDICATES FEW OR NO CLOUDS BELOW 12,000 FEET WITH NO
SIGNIFICANT WEATHER AND/OR OBSTRUCTIONS TO VISIBILITY.

WIZ001-002-006>008-014>016-023>028-270600-
NORTHWEST WISCONSIN

CITY           SKY/WX    TMP DP  RH WIND       PRES   REMARKS
SUPERIOR ARPT  CLOUDY    67  64  90 CALM      29.95S
ASHLAND        CLOUDY    73  68  84 SW7       29.98R
HAYWARD        MOCLDY    68  66  93 CALM      30.00F
SIREN          PTCLDY    70  63  78 CALM      30.00R
CUMBERLAND     PTCLDY    68  63  83 CALM      30.01R
RICE LAKE      PTCLDY    69  64  84 CALM      30.02R
CHETEK         PTCLDY    73  65  76 CALM      30.00S
LADYSMITH      MOCLDY    70  63  78 N7        30.03R
EAU CLAIRE     NOT AVBL
MENOMONIE      PTCLDY    74  68  80 SW3       30.00S
NEW RICHMOND   MOCLDY    70  62  74 CALM      30.01R
OSCEOLA        CLOUDY    69  64  83 SE3       30.02R
$$

WIZ003>005-009-010-017-018-270600-
NORTH CENTRAL WISCONSIN

CITY           SKY/WX    TMP DP  RH WIND       PRES   REMARKS
MANITOWISH WTR FOG       64  64 100 CALM      30.00S VSB 1
ARBOR VITAE    CLOUDY    67  64  91 CALM      30.00S
WOODRUFF       CLOUDY    67  64  91 CALM      30.00S
RHINELANDER    CLOUDY    69  63  81 CALM      30.01S
EAGLE RIVER    PTCLDY    64  64 100 CALM      29.99F FOG
LAND O LAKES   CLOUDY    63  62  97 CALM      30.00F FOG
PHILLIPS       TSTM      70  66  89 W9G23     30.08R
TOMAHAWK       CLOUDY    65  63  93 CALM      30.01R
MEDFORD        PTCLDY    71  68  93 SW6       30.01R
MERRILL        PTCLDY    71  67  87 W3        30.00S
$$

WIZ029-030-035-036-043>047-270600-
CENTRAL WISCONSIN

CITY           SKY/WX    TMP DP  RH WIND       PRES   REMARKS
WAUSAU         PTCLDY    75  67  76 W3        29.98S
MOSINEE        CLEAR     70  68  94 SW6       30.01S
MARSHFIELD     CLEAR     72  66  81 W6        30.01S
STEVENS POINT  CLEAR     71  66  83 SW3       30.01R
WAUPACA        CLEAR     74  70  86 CALM      30.00R
WAUTOMA        CLEAR     69  68  96 CALM      30.01R
WISC RAPIDS    CLEAR     73  65  75 SW6       30.01S
CAMP DOUGLAS   FOG       64  64 100 CALM      30.00F VSB 1/2
$$

WIZ011>013-019>022-031-037>040-048>050-270600-
NORTHEAST WISCONSIN

CITY           SKY/WX    TMP DP  RH WIND       PRES   REMARKS
ANTIGO         CLEAR     70  66  88 CALM      30.00F
SHAWANO        CLEAR     77  68  73 SW3       29.96F
OCONTO         CLEAR     74  72  91 SW6       29.94S
STURGEON BAY   CLEAR     75  32  20 SW8       29.95F
GREEN BAY      CLEAR     74  70  87 SW6       29.97S
MANITOWOC      NOT AVBL
APPLETON       CLEAR     73  63  68 SW7       29.98S
CLINTONVILLE   CLEAR     73  64  73 SW6       29.98S
OSHKOSH        CLEAR     74  65  73 SW3       29.99S
$$

WIZ032>034-041-042-053>061-270600-
SOUTHWEST WISCONSIN

CITY           SKY/WX    TMP DP  RH WIND       PRES   REMARKS
LA CROSSE      CLEAR     77  70  79 CALM      29.99S
SPARTA         PTCLDY    67  66  96 CALM      30.02S
VIROQUA        CLEAR     70  66  88 S5        30.04R
BOSCOBEL       CLEAR     69  67  93 CALM      30.01F
PRAIRIE DU CHI CLEAR     70  66  87 CALM      30.01S
PLATTEVILLE    CLEAR     71  68  91 CALM      30.04S
$$

WIZ056-057-062-063-064-067-068-270600-
SOUTH CENTRAL WISCONSIN

CITY           SKY/WX    TMP DP  RH WIND       PRES   REMARKS
REEDSBURG      CLEAR     73  69  88 CALM      30.01S
BARABOO/DELLS  CLEAR     71  64  78 CALM      30.02S
LONE ROCK      NOT AVBL
MINERAL POINT  CLEAR     72  68  88 CALM      30.04S
MADISON        CLEAR     71  67  87 CALM      30.01S
MIDDLETON      CLEAR     68  67  97 CALM      30.02S
WATERTOWN      CLEAR     69  68  97 CALM      30.01F
MONROE         CLEAR     75  63  64 W8        30.03S
JANESVILLE     CLEAR     72  68  88 CALM      30.01S
$$

WIZ051-052-058>065-066-070>072-270600-
SOUTHEAST WISCONSIN

CITY           SKY/WX    TMP DP  RH WIND       PRES   REMARKS
MILWAUKEE      CLEAR     75  63  66 SW5       30.00F
WAUKESHA       CLEAR     66  63  88 S3        30.02F
MILWAUKEE/TIMM CLEAR     72  59  64 S3        30.01F
RACINE         CLEAR     72  64  76 CALM      30.02F
BURLINGTON     CLEAR     65  64  95 CALM      30.02S
KENOSHA        CLEAR     71  63  75 CALM      30.02S
FOND DU LAC    CLEAR     72  66  81 SW5       30.00S
SHEBOYGAN      CLEAR     66  63  90 SW3       29.99S
WEST BEND      CLEAR     68  64  88 CALM      30.00F
JUNEAU         CLEAR     68  66  92 CALM      30.02F
$$

LSZ147-162-270600-
LAKE SUPERIOR

STATION/POSITION TIME  TEMP    WIND        PRES    WAVE
                       AIR SEA DIR/SP/G            HT/PER
                 (UTC) (F)     (DEG/KT/KT) (MB)    (FT/S)
W MID LAKE BUOY  0350   65 62  320/  6/  8 1013.1R   1
DEVILS ISLAND    0400   69     240/  9/ 10 1013.9R
PORT WING        0400   74     190/  4/  8 1014.6R
SAXON HARBOR     0400   72     200/  5/  7 1013.9R
$$

LMZ867-665-643>646-270600-
LAKE MICHIGAN

STATION/POSITION TIME  TEMP    WIND        PRES    WAVE
                       AIR SEA DIR/SP/G            HT/PER
                 (UTC) (F)     (DEG/KT/KT) (MB)    (FT/S)
CHAMBERS ISLAND  0400   77     200/  8/ 12 1013.2F
S GREEN BAY BUOY 0430   77 74  210/ 10/ 12   N/A
N MID LAKE BUOY  0350   72 69  220/ 16/ 17 1012.3R   3/ 4
NORTHPORT PIER   0400   77     190/  3/  6 1013.2F
SISTER BAY       0421   80     240/ 13/ 15   N/A
ALGOMA LAKESHORE 0413             CALM       N/A
KEWAUNEE LAKESHO 0400   77     230/  7/ 11 1014.3
SHEBOYGAN LAKESH 0400   74     200/  6/  6 1015.4F
PORT WASHINGTON  0440   68     220/  1/  2 1016.3F
ATWATER BUOY     0400   66 61  240/  2/  2 1017.9R
MILWAUKEE LAKESH 0410   74     190/  5/  6   N/A
S MID LAKE BUOY  0350   75 76  160/  6/  8 1015.4R   0
KENOSHA   LAKESH 0400   76     210/  4/  8 1015.9R
$$

TC  - TEMPERATURE IN CELSIUS
VSB - VISIBILITY IN STATUTE MILES
WCI - WIND CHILL INDEX
HX  - HEAT INDEX





USA.gov is the U.S. government's official web portal to all federal, state and local government web resources and services.